Regional Weather Roundup
Issued by NWS

Home | Current Version | Previous Version | Graphics & Text | Print | Product List | Glossary Off
Versions: 1 2 3 4 5 6 7 8 9 10 11 12 13 14 15 16 17 18 19 20 21 22 23 24 25 26 27 28 29 30 31 32 33 34 35 36 37 38 39 40 41 42 43 44 45 46 47 48 49 50

000
ASUS43 KDMX 250306
RWRIA

WEATHER ROUNDUP FOR IOWA
NATIONAL WEATHER SERVICE DES MOINES IA
1000 PM CDT TUE APR 24 2018

NOTE: "FAIR" INDICATES FEW OR NO CLOUDS BELOW 12,000 FEET WITH NO
SIGNIFICANT WEATHER AND/OR OBSTRUCTIONS TO VISIBILITY.

* - THESE STATIONS ARE NOT NWS STATIONS...THUS NOT UNDER NWS
QUALITY CONTROL.  THEY ALSO DO NOT REPORT WEATHER SUCH
AS PRECIPITATION OR FOG.

IAZ001>003-012>014-020>022-031>034-043>046-250400-
   NORTHWEST IOWA

CITY           SKY/WX    TMP DP  RH WIND       PRES   REMARKS
CARROLL *      CLOUDY    50  46  87 N17       30.21R
CHEROKEE *     CLOUDY    45  44  95 N10       30.25R
DENISON *      LGT RAIN  48  46  93 NE12      30.23S
LE MARS *      CLOUDY    45  43  93 N6        30.27R
ORANGE CITY *  PTCLDY    46  45  93 N7        30.26S
SHELDON *      CLOUDY    45  43  93 N5        30.25R
SIOUX CITY     LGT RAIN  46  43  89 N16       30.26R
SPENCER        CLOUDY    47  40  76 N8        30.24R
STORM LAKE *   CLOUDY    45  43  93 N16G22    30.23R
$$

IAZ055>058-069>071-079>083-090>094-250400-
   SOUTHWEST IOWA

CITY           SKY/WX    TMP DP  RH WIND       PRES   REMARKS
ATLANTIC *     CLOUDY    52  45  76 N12       30.21R
AUDUBON *      DRIZZLE   50  45  81 N12G20    30.21R
CLARINDA *     CLOUDY    55  48  76 N17       30.19R
COUNCIL BLFS * CLOUDY    50  50 100 N12       30.19S
CRESTON *      CLOUDY    57  45  62 N18       30.17R
HARLAN  *      LGT RAIN  50  46  87 N14       30.23F
LAMONI         CLOUDY    63  43  48 N16       30.10R
RED OAK *      CLOUDY    54  48  82 N13       30.19S
SHENANDOAH *   CLOUDY    54  50  87 N9G16     30.19R
$$

IAZ047>049-059>061-072>074-084-250400-
   CENTRAL IOWA

CITY           SKY/WX    TMP DP  RH WIND       PRES   REMARKS
AMES           CLOUDY    55  42  61 N20G25    30.16R
ANKENY *       CLOUDY    57  43  58 N15G23    30.15R
BOONE *        CLOUDY    54  43  66 N22G29    30.16R
CHARITON *     CLOUDY    61  46  59 N14       30.10R
DES MOINES     CLOUDY    58  42  55 N15G22    30.14R
GRINNELL*      CLOUDY    58  44  60 N15G21    30.12R
KNOXVILLE *    CLOUDY    61  45  55 N15       30.10R
MARSHALLTOWN   CLOUDY    57  42  57 N17       30.12R
NEWTON *       CLOUDY    57  43  58 N18G24    30.12R
PELLA *        MOCLDY    60  46  59 N12       30.11R
PERRY *        MOCLDY    53  38  58 N20G26    30.18R
$$

IAZ004>006-015-016-023>025-035-036-250400-
   NORTH CENTRAL IOWA

CITY           SKY/WX    TMP DP  RH WIND       PRES   REMARKS
ALGONA *       CLOUDY    48  45  87 N14       30.22R
CLARION *      CLOUDY    50  43  76 N14       30.19R
ESTHERVILLE    CLOUDY    44  40  85 N10       30.23R
FORT DODGE *   CLOUDY    50  44  80 N10       30.21R
MASON CITY     CLOUDY    49  41  74 N17       30.19R
FOREST CITY *  CLOUDY    50  43  76 N15       30.19S
WEBSTER CITY * CLOUDY    52  45  76 N16       30.17R
IOWA FALLS *   CLOUDY    54  43  64 N20G25    30.16R
$$

IAZ007>011-017>019-026>030-037>042-050>054-066-250400-
   NORTHEAST IOWA

CITY           SKY/WX    TMP DP  RH WIND       PRES   REMARKS
CEDAR RAPIDS   MOCLDY    61  45  55 N12       30.06R
CHARLES CITY * FAIR      52  39  62 N17G24    30.16R
CLINTON *      CLOUDY    59  37  44 N12       30.01
DECORAH *      MOCLDY    55  36  47 N13       30.12R
DUBUQUE        CLOUDY    62  38  40 N10       30.04R
MONTICELLO *   MOCLDY    59  41  51 N10       30.05R
OELWEIN *      FAIR      55  39  54 N15       30.11R
WATERLOO       CLOUDY    56  40  55 N17       30.11R
$$

IAZ064-065-067-068-078-250400-
   EAST CENTRAL IOWA

CITY           SKY/WX    TMP DP  RH WIND       PRES   REMARKS
DAVENPORT      CLOUDY    57  33  40 NW7       30.03R
IOWA CITY      MOCLDY    65  42  43 NW10      30.06R
MT. PLEASANT * PTCLDY    63  37  39 NW12      30.04R
MUSCATINE *    FAIR      64  37  36 N12       30.03R
QUAD CITIES    FAIR      60  34  37 W3        30.00R
$$

IAZ062-063-075>077-085>089-095>099-250400-
   SOUTHEAST IOWA

CITY           SKY/WX    TMP DP  RH WIND       PRES   REMARKS
BURLINGTON     CLOUDY    63  31  30 NW8       30.01R
FAIRFIELD *    MOCLDY    63  43  48 N15       30.05R
FORT MADISON * PTCLDY    61  36  39 NW8       30.04R
KEOKUK *       CLOUDY    63  34  34 NW10      30.02R
OSKALOOSA *    FAIR      61  45  56 N13       30.08R
CENTERVILLE *  MOCLDY    63  41  45 N12       30.10R
OTTUMWA        CLOUDY    61  45  55 N13       30.07R
WASHINGTON *   CLOUDY    63  45  51 NW14G20   30.06R
$$

ABBREVIATIONS USED IN REMARKS
   TC - TEMPERATURES IN CELSIUS
  WCI - WIND CHILL INDEX
   HX - HEAT INDEX
  VSB - VISIBILITY
$$





USA.gov is the U.S. government's official web portal to all federal, state and local government web resources and services.